This is the latest recevied weather packets stored in our database for station/object HB9FHL-13. If no packets are shown the sender has not sent any weather packets the latest 10 day(s).
| Time | Temp. | Humidity | Pressure | Rain* | Wind** | Luminosity | Snow |
|---|---|---|---|---|---|---|---|
| 1788080294 | 21.11° C | - | 1019.4 hPa | 0 mm | - | - | - |
| 1788080238 | 21.11° C | - | 1019.4 hPa | 0 mm | - | - | - |
| 1788080233 | 21.11° C | - | 1019.4 hPa | 0 mm | - | - | - |
| 1788079936 | 21.11° C | - | 1019.3 hPa | 0 mm | - | - | - |
| 1788079932 | 21.11° C | - | 1019.3 hPa | 0 mm | - | - | - |
| 1788079632 | 21.67° C | - | 1020.2 hPa | 0 mm | - | - | - |
| 1788079335 | 21.11° C | - | 1021.4 hPa | 0 mm | - | - | - |
| 1788079331 | 21.11° C | - | 1021.4 hPa | 0 mm | - | - | - |
| 1788079031 | 20.56° C | - | 1019.5 hPa | 0 mm | - | - | - |
| 1788078731 | 20.56° C | - | 1018.8 hPa | 0 mm | - | - | - |
| 1788078429 | 20.56° C | - | 1021.2 hPa | 0 mm | - | - | - |
| 1788078129 | 20.56° C | - | 1021.8 hPa | 0 mm | - | - | - |
| 1788077827 | 20.56° C | - | 1021.8 hPa | 0 mm | - | - | - |
| 1788077527 | 20.56° C | - | 1018.7 hPa | 0 mm | - | - | - |
| 1788077226 | 19.44° C | - | 1020.3 hPa | 0 mm | - | - | - |
| 1788076926 | 20.56° C | - | 1022.5 hPa | 0 mm | - | - | - |
| 1788076625 | 19.44° C | - | 1017.7 hPa | 0 mm | - | - | - |
| 1788076325 | 20° C | - | 1020.2 hPa | 0 mm | - | - | - |
| 1788076024 | 19.44° C | - | 1021.4 hPa | 0 mm | - | - | - |
| 1788075724 | 19.44° C | - | 1021.6 hPa | 0 mm | - | - | - |
| 1788075424 | 20.56° C | - | 1018.1 hPa | 0 mm | - | - | - |
| 1788075123 | 20° C | - | 1019.7 hPa | 0 mm | - | - | - |
| 1788074824 | 20° C | - | 1022.2 hPa | 0 mm | - | - | - |
| 1788074820 | 20° C | - | 1022.2 hPa | 0 mm | - | - | - |
| 1788074524 | 20.56° C | - | 1017.7 hPa | 0 mm | - | - | - |
* Rain since midnight (hover to see other rain measurements)
** Current wind speed in m/s (hover to see current wind gust speed)